Weather History for Zanesville, OH

Change the Weather History Date:

Monday, October 8, 2012

  Actual Average Record
Temperature  
Mean Temperature 43 °F 56 °F  
Max Temperature 51 °F 67 °F 88 °F (2007)
Min Temperature 35 °F 44 °F 25 °F (1952)
Degree Days  
Heating Degree Days 22 10  
Month to date heating degree days 69 71  
Since 1 July heating degree days 207 180  
Cooling Degree Days 0 0  
Month to date cooling degree days 1 7  
Year to date cooling degree days 975 766  
Moisture  
Dew Point 37 °F    
Average Humidity 78    
Maximum Humidity 100    
Minimum Humidity 56    
Precipitation  
Precipitation 0.00 in 0.09 in 1.68 in (1998)
Month to date precipitation 0.68 0.71  
Year to date precipitation 27.85 30.24  
Sea Level Pressure  
Sea Level Pressure 30.22 in    
Wind  
Wind Speed 2 mph (South)    
Max Wind Speed 12 mph    
Max Gust Speed 20 mph    
Visibility 6 miles    
Events      
T = Trace of Precipitation, MM = Missing Value Source: NWS Daily Summary

Daily Weather History Graph

Daily Weather History Graph

Search for Another Location

Airport:

Trip Planner

Search our weather history database for the weather conditions in past years. The results will help you decide how hot, cold, wet, or windy it might be!

Date:

Astronomy

Oct. 08, 2012 Rise Set
Actual Time 7:31 AM EDT 6:57 PM EDT
Civil Twilight 7:04 AM EDT 7:25 PM EDT
Nautical Twilight 6:32 AM EDT 7:56 PM EDT
Astronomical Twilight 6:01 AM EDT 8:27 PM EDT
Moon 12:10 AM EDT (10/8) 2:46 PM EDT (10/8)
Length of Visible Light 12h 20m
Length of Day
11h 26m
Waning Gibbous, 46% of the Moon is Illuminated
Oct 8
Waning Gibbous
Oct 15
New
Oct 21
First Quarter
Oct 29
Full
Nov 6
Last Quarter

Hourly Weather History & Observations

Time (EDT) Temp. Windchill Dew Point Humidity Pressure Visibility Wind Dir Wind Speed Gust Speed Precip Events Conditions
12:53 AM 42.1 °F - 39.9 °F 92% 30.19 in 9.0 mi Calm Calm - N/A   Overcast
1:53 AM 43.0 °F - 41.0 °F 93% 30.20 in 10.0 mi Calm Calm - N/A   Overcast
2:53 AM 42.1 °F - 39.9 °F 92% 30.21 in 10.0 mi Calm Calm - N/A   Overcast
3:53 AM 39.0 °F - 37.0 °F 93% 30.22 in 7.0 mi Calm Calm - N/A   Partly Cloudy
4:01 AM 39.2 °F 35.9 °F 37.4 °F 93% 30.20 in 1.2 mi SW 4.6 mph - N/A   Scattered Clouds
4:09 AM 39.2 °F 37.0 °F 37.4 °F 93% 30.20 in 0.8 mi SW 3.5 mph - N/A   Scattered Clouds
4:12 AM 39.2 °F - 37.4 °F 93% 30.20 in 2.0 mi Calm Calm - N/A   Partly Cloudy
4:19 AM 39.2 °F - 37.4 °F 93% 30.20 in 6.0 mi Calm Calm - N/A   Partly Cloudy
4:27 AM 39.2 °F - 37.4 °F 93% 30.20 in 1.5 mi Calm Calm - N/A   Partly Cloudy
4:34 AM 39.2 °F - 37.4 °F 93% 30.20 in 1.2 mi Calm Calm - N/A   Partly Cloudy
4:39 AM 37.4 °F - 37.4 °F 100% 30.20 in 0.8 mi Calm Calm - N/A   Mist
4:53 AM 37.9 °F - 37.0 °F 97% 30.22 in 1.5 mi Calm Calm - N/A   Scattered Clouds
4:59 AM 37.4 °F - 37.4 °F 100% 30.20 in 1.0 mi Calm Calm - N/A   Mist
5:04 AM 37.4 °F - 37.4 °F 100% 30.21 in 0.8 mi Calm Calm - N/A   Scattered Clouds
5:14 AM 37.4 °F - 37.4 °F 100% 30.22 in 1.8 mi Calm Calm - N/A   Clear
5:16 AM 37.4 °F - 37.4 °F 100% 30.22 in 3.0 mi Calm Calm - N/A   Clear
5:39 AM 37.4 °F 34.9 °F 35.6 °F 93% 30.22 in 2.5 mi South 3.5 mph - N/A   Mostly Cloudy
5:42 AM 35.6 °F - 35.6 °F 100% 30.22 in 1.2 mi Calm Calm - N/A   Mostly Cloudy
5:50 AM 37.4 °F - 35.6 °F 93% 30.22 in 1.8 mi Calm Calm - N/A   Mostly Cloudy
5:53 AM 37.0 °F - 36.0 °F 96% 30.23 in 5.0 mi Calm Calm - N/A   Mostly Cloudy
6:53 AM 37.9 °F - 37.9 °F 100% 30.25 in 7.0 mi Calm Calm - N/A   Overcast
7:53 AM 39.0 °F - 37.9 °F 96% 30.24 in 7.0 mi Calm Calm - N/A   Overcast
8:53 AM 41.0 °F - 39.0 °F 93% 30.25 in 10.0 mi Calm Calm - N/A   Mostly Cloudy
9:53 AM 43.0 °F - 39.9 °F 89% 30.26 in 10.0 mi Calm Calm - N/A   Clear
10:53 AM 45.0 °F - 37.9 °F 76% 30.26 in 10.0 mi Calm Calm - N/A   Clear
11:53 AM 46.9 °F - 37.9 °F 71% 30.27 in 10.0 mi Calm Calm - N/A   Partly Cloudy
12:53 PM 48.0 °F - 37.0 °F 66% 30.26 in 10.0 mi SW 3.5 mph - N/A   Overcast
1:53 PM 50.0 °F - 37.0 °F 61% 30.23 in 10.0 mi South 10.4 mph - N/A   Clear
2:53 PM 50.0 °F - 35.1 °F 57% 30.22 in 10.0 mi SE 9.2 mph - N/A   Mostly Cloudy
3:53 PM 50.0 °F - 36.0 °F 59% 30.21 in 10.0 mi SSE 5.8 mph - N/A   Mostly Cloudy
4:53 PM 50.0 °F - 36.0 °F 59% 30.21 in 10.0 mi SSE 8.1 mph - N/A   Mostly Cloudy
5:53 PM 48.9 °F - 36.0 °F 61% 30.20 in 10.0 mi SSW 4.6 mph - N/A   Partly Cloudy
6:53 PM 46.0 °F 44.8 °F 35.1 °F 66% 30.20 in 10.0 mi SE 3.5 mph - N/A   Clear
7:53 PM 45.0 °F - 36.0 °F 71% 30.19 in 10.0 mi Calm Calm - N/A   Clear
8:53 PM 42.1 °F 40.2 °F 37.0 °F 82% 30.21 in 10.0 mi SSE 3.5 mph - N/A   Clear
10:53 PM 39.0 °F - 36.0 °F 89% 30.21 in 10.0 mi Calm Calm - N/A   Clear
11:53 PM 36.0 °F - 35.1 °F 97% 30.21 in 9.0 mi Calm Calm - N/A   Clear